Location: Holmes Observatory
(37.1039°N, 122.0513°W)
Time: 06:53:02
(UTC-07:00)

Daily predictions for brighter satellites

Satellite Brightness Start Highest point End
(mag) Time Altitude Azimuth Time Altitude Azimuth Time Altitude Azimuth
Milstar 3 4.5 19:13:22 10° WSW 19:22:24 57° S 19:39:52 10° E
SL-16 R/B 2.3 19:18:35 10° S 19:24:09 61° ESE 19:29:46 10° NNE
BREEZE-M TANK 3.5 19:12:03 10° WNW 19:25:07 89° NNE 19:28:44 10° ESE
Cosmos 1953 3.7 19:22:36 10° SE 19:25:23 18° E 19:28:10 10° NE
Cosmos 292 Rocket 4.4 19:21:53 10° SSW 19:26:38 63° WNW 19:31:26 10° NNE
USA 215 3.3 19:23:33 10° NE 19:30:03 65° SE 19:36:30 10° SSW
ATLAS CENTAUR R/B 3.2 19:26:49 10° SSW 19:31:00 68° ESE 19:43:45 10° NE
MSX 4.3 19:26:25 10° S 19:32:06 68° WSW 19:37:51 10° NNW
Helios 1A 4.0 19:29:53 10° SE 19:33:22 26° ENE 19:36:51 10° NNE
BREEZE-M DEB (TANK) 3.9 19:31:36 10° NW 19:35:05 81° SW 19:46:41 10° SE
Cosmos 1805 4.3 19:32:39 10° SE 19:35:49 24° E 19:39:00 10° NE
Cosmos 1441 Rocket 4.0 19:34:20 10° NNW 19:38:00 53° W 19:41:38 10° S
Cosmos 1072 Rocket 4.5 19:32:21 10° S 19:38:19 60° E 19:44:19 10° NNE
Cosmos 1378 3.3 19:35:59 10° N 19:39:37 50° E 19:43:15 10° SSE
SeaSat 1 3.9 19:38:31 10° ENE 19:41:31 16° ESE 19:44:29 10° SE
COSMO-SKYMED 1 3.8 19:37:26 10° N 19:41:36 47° WNW 19:45:46 10° SSW
Meteor 1-28 Rocket 3.1 19:39:09 10° NNE 19:42:52 78° E 19:46:34 10° S
Cosmos 1452 Rocket 4.3 19:38:11 10° N 19:42:53 32° ENE 19:47:32 10° SE
METEOR-M 4.3 19:39:12 10° SSE 19:44:22 52° ENE 19:49:33 10° N
SEDSat Delta rocket 4.5 19:40:25 10° WSW 19:46:49 51° S 19:52:20 15° ESE
ALOS 3.3 19:43:11 10° ESE 19:46:56 25° ENE 19:50:42 10° NNE
OAO 3 Rocket 3.3 19:42:40 10° WSW 19:47:22 64° S 19:51:10 16° E
Meteor 1-22 Rocket 4.2 19:44:52 10° S 19:50:15 82° W 19:55:34 10° N
Cosmos 1707 4.2 19:47:00 10° NNW 19:50:39 42° W 19:54:18 10° SSW
Cosmos 2278 Rocket 3.3 19:45:55 10° NW 19:51:19 47° WSW 19:56:41 10° S
SAR-Lupe-4 4.1 19:49:28 10° S 19:52:59 61° WSW 19:56:33 10° NNW
FREGAT/IRIS 2.5 19:49:58 10° SSE 19:53:02 80° E 19:56:08 10° N
FENGYUN 3A 4.4 19:48:52 10° SE 19:53:31 31° ENE 19:58:11 10° N
Cosmos 2297 3.7 19:50:44 10° NNW 19:56:27 88° ENE 20:02:04 10° SSE
Cosmos 724 4.5 19:50:56 10° S 19:56:36 50° ESE 20:02:24 10° NE
SJ-6B 3.1 19:53:10 10° S 19:57:05 72° W 20:01:07 10° NNW
Cosmos 1437 4.1 19:54:54 10° NNW 19:58:02 43° W 20:01:08 10° SSW
NOSS 3-2 (A) 3.7 19:54:58 10° SW 20:00:58 72° WNW 20:07:32 10° NNE
Cosmos 1766 Rocket 3.6 19:58:03 10° N 20:02:22 56° E 20:06:37 10° SSE
Meteor 1-24 Rocket 4.0 19:56:51 10° NNW 20:02:27 68° W 20:07:49 10° S
CZ-4C R/B 4.3 20:01:10 10° W 20:05:36 25° NW 20:10:30 10° NNE
Cosmos 1758 3.3 20:02:47 10° S 20:06:48 63° E 20:10:52 10° NNE
Cosmos 1943 4.4 20:04:25 10° SSE 20:14:49 - NE 20:07:18 20° ESE
Cosmos 2369 Rocket 3.7 20:06:19 10° NNE 20:09:53 17° NE 20:10:43 16° ENE
Cosmos 1603 3.8 20:05:49 10° S 20:11:22 56° ESE 20:17:00 10° NNE
Cosmos 2034 Rocket 3.9 20:06:34 10° S 20:12:47 78° E 20:19:07 10° N
Cosmos 1464 Rocket 4.2 20:09:01 10° SSW 20:15:16 74° W 20:21:29 10° N
GPS 2-04 Rocket1 3.6 20:12:17 10° SW 20:15:17 26° SSE 20:15:36 26° SSE
Timation 1 Rocket 4.3 20:09:57 10° NNW 20:15:57 90° ENE 20:21:55 10° SSE
Cosmos 1076 Rocket 3.7 20:14:12 10° N 20:18:32 74° W 20:22:51 10° S
Cosmos 1269 Rocket 4.1 20:13:47 10° S 20:18:51 50° ESE 20:23:57 10° NNE
Helios 1B rocket 2.7 20:15:41 10° N 20:19:47 70° WNW 20:23:52 10° SSW
Spot 2 Rocket 3.6 20:16:00 10° S 20:21:01 78° WSW 20:26:06 10° NNW
Cosmos-2242 2.9 20:16:56 10° S 20:21:16 83° E 20:25:40 10° N
Cosmos 1048 Rocket 4.2 20:17:57 10° S 20:23:01 46° ESE 20:28:01 10° NNE
ASTEX 1 3.4 20:20:50 10° NNE 20:25:39 53° E 20:30:24 10° S
SL-8 R/B 3.7 20:21:19 10° SW 20:26:00 59° SE 20:27:44 36° ENE
FengYun 1-2 T 4.1 20:21:43 10° SSE 20:27:15 88° ENE 20:32:46 10° NNW
Cosmos 1674 3.8 20:24:21 10° NNE 20:26:55 29° NE 20:26:55 29° NE
BREEZE-M DEB (TANK) 4.2 20:28:48 10° W 20:31:17 26° SSW 20:36:39 10° SSE
Cosmos 1842 Rocket 3.6 20:32:04 46° ESE 20:32:32 49° E 20:36:43 10° NNE
ASTRO E2 3.6 20:29:18 10° WSW 20:33:01 35° S 20:33:29 34° SSE
Cosmos 1346 4.5 20:30:39 10° N 20:32:16 28° N 20:32:16 28° N
Abrixas 3.4 20:31:56 10° SW 20:33:59 39° SSW 20:33:59 39° SSW
Cosmos 1500 Rocket 3.9 20:32:16 10° N 20:36:15 45° ENE 20:36:15 45° ENE
Cosmos 1408 Rocket 4.4 20:32:43 10° NNW 20:36:57 51° W 20:41:07 10° SSW
CENTAUR R/B 2.7 20:32:23 10° S 20:37:57 43° ESE 20:40:44 28° ENE
NOSS 3-2 (C) 4.4 20:32:59 10° SW 20:38:50 49° NW 20:45:14 10° NNE
ATLAS CENTAUR R/B 4.0 20:40:25 10° WNW 20:42:52 16° WSW 20:45:13 10° SW
Meteor 1-21 Rocket 4.3 20:40:29 10° NNW 20:46:02 77° W 20:51:32 10° S
Resurs 01 Rocket 3.0 20:42:03 10° SSW 20:46:12 38° W 20:50:22 10° NNW
Resurs 1-3 4.5 20:43:12 10° S 20:47:26 48° W 20:51:41 10° NNW
Atlas Centaur 2 4.0 20:40:18 10° W 20:47:44 34° SSW 20:51:29 23° SSE
CZ-2D R/B 3.4 20:53:47 71° SW 20:53:58 72° WSW 20:57:53 10° NNW
ATLAS 5 CENTAUR R/B 3.4 20:52:21 10° WSW 20:56:43 34° NW 21:01:25 10° NNE
ISS -0.8 20:54:20 10° SW 20:55:00 15° SW 20:55:00 15° SW
Cosmos 1743 Rocket 4.2 21:00:18 10° NNW 21:04:39 55° W 21:05:51 41° SW
H-2A R/B 3.9 21:11:42 42° W 21:11:42 42° W 21:15:22 10° NNW
USA 215 4.5 21:06:52 10° NNE 21:12:46 38° NNW 21:18:39 10° W
ERS-1 Rocket 4.0 21:14:56 34° NNE 21:14:56 34° NNE 21:17:56 10° N
Gbstr 26 Del rocket 4.4 21:11:26 10° SW 21:13:52 34° SW 21:13:52 34° SW
GP-B 4.2 21:13:32 10° N 21:16:19 37° N 21:16:19 37° N
SeaSat 1 2.9 21:14:27 10° NNE 21:19:18 58° WNW 21:24:08 10° SW
ALOS 4.0 21:21:24 17° SSW 21:24:13 29° W 21:28:18 10° NW
Cosmos 1655 Rocket 4.4 21:22:15 10° N 21:26:58 51° NNE 21:26:58 51° NNE
OAO 3 Rocket 4.5 21:26:01 10° W 21:28:59 36° WSW 21:28:59 36° WSW
BREEZE-M DEB (TANK) 4.4 21:14:30 10° SSW 21:30:34 56° SSE 21:30:34 56° SSE
Cosmos 2026 Rocket 4.4 21:43:10 10° N 21:47:56 55° NNW 21:47:56 55° NNW
Cosmos 2369 Rocket 3.2 21:48:48 10° NNW 21:52:31 42° NW 21:52:31 42° NW
Cosmos 1943 Rocket 4.0 21:56:11 10° NNW 21:58:18 23° N 21:58:18 23° N
CENTAUR R/B 4.0 22:23:13 10° WSW 22:33:45 14° NNE 22:34:47 10° NNE
